Regional Weather Roundup
Issued by NWS

Home | Current Version | Previous Version | Graphics & Text | Print | Product List | Glossary On
Versions: 1 2 3 4 5 6 7 8 9 10 11 12 13 14 15 16 17 18 19 20 21 22 23 24 25 26 27 28 29 30 31 32 33 34 35 36 37 38 39 40 41 42 43 44 45 46 47 48 49 50
000
ASUS43 KFSD 281102
RWRSD

WEATHER ROUNDUP FOR SOUTH DAKOTA
NATIONAL WEATHER SERVICE SIOUX FALLS SD
600 AM CDT MON JUL 28 2014

NOTE: "FAIR" INDICATES FEW OR NO CLOUDS BELOW 12,000 FEET WITH NO
SIGNIFICANT WEATHER AND/OR OBSTRUCTIONS TO VISIBILITY.


SDZ001>005-009-010-012>017-281200-
NORTHWEST AND NORTH CENTRAL SOUTH DAKOTA

CITY           SKY/WX    TMP DP  RH WIND       PRES   REMARKS
BUFFALO          N/A     52  49  89 SE8       30.28F
FAITH            N/A     52  49  89 S6        30.35R
MOBRIDGE       CLEAR     50  50 100 N6        30.31S
$$

SDZ012>016-024>037-041>051-057-063-072>074-281200-
SOUTHWEST AND SOUTH CENTRAL SOUTH DAKOTA

CITY           SKY/WX    TMP DP  RH WIND       PRES   REMARKS
RAPID CTY ARPT PTCLDY    51  49  92 CALM      30.35F
PIERRE         CLEAR     53  51  93 W3        30.31S
CUSTER         CLEAR     49  46  90 NW3       30.43F
ELLSWORTH AFB  CLEAR     55  51  88 SE6       30.35S
PHILIP         CLEAR     50  47  89 N3        30.34S
PINE RIDGE     CLEAR     52  50  93 NE5       30.35S
WINNER         FAIR      51  49  92 SW5       30.32S
$$

SDZ004>011-016>023-039-040-281200-
NORTHEAST SOUTH DAKOTA

CITY           SKY/WX    TMP DP  RH WIND       PRES   REMARKS
ABERDEEN       CLOUDY    55  53  93 N7        30.29R
WATERTOWN      CLOUDY    58  56  93 N7        30.26S
SISSETON         N/A     60  58  92 N8        30.25R
$$

SDZ017-020-022-023-036>040-048>070-281200-
SOUTHEAST SOUTH DAKOTA

CITY           SKY/WX    TMP DP  RH WIND       PRES   REMARKS
SIOUX FALLS    CLOUDY    59  55  87 NW9       30.26R
HURON          CLEAR     48  47  96 W5        30.29R
CHAMBERLAIN    CLEAR     55  53  91 N7        30.31S
MITCHELL       CLEAR     53  52  96 NW7       30.29S
YANKTON        PTCLDY    55  52  88 NW9       30.27S
$$

ABBREVIATIONS USED IN REMARKS
   TC - TEMPERATURE IN CELSIUS
  WCI - WIND CHILL INDEX
   HX - HEAT INDEX
  VSB - VISIBILITY




USA.gov is the U.S. government's official web portal to all federal, state and local government web resources and services.